| time (UTC) | temp C | wind direction | speed KPH | gust KPH | rain 1hr cm | rain 24hr cm | rain mn cm | humidity % | barometer mb |
| 20260503033031 | 15 | 139 | 0.0 | 4.8 | 0.00 | 0.00 | 0.00 | 43 | 1010.2 |
| 20260503031520 | 16 | 170 | 0.0 | 6.4 | 0.00 | 0.00 | 0.00 | 41 | 1010.0 |
| 20260503030040 | 16 | 177 | 0.0 | 3.2 | 0.00 | 0.00 | 0.00 | 40 | 1009.8 |
| 20260503024528 | 17 | 121 | 0.0 | 6.4 | 0.00 | 0.00 | 0.00 | 38 | 1009.8 |
| 20260503023017 | 17 | 152 | 0.0 | 4.8 | 0.00 | 0.00 | 0.00 | 37 | 1009.7 |
| 20260503021516 | 18 | 153 | 0.0 | 11.3 | 0.00 | 0.00 | 0.00 | 36 | 1009.8 |
| 20260503020016 | 18 | 198 | 0.0 | 8.0 | 0.00 | 0.00 | 0.00 | 34 | 1009.9 |
| 20260503014515 | 19 | 162 | 0.0 | 4.8 | 0.00 | 0.00 | 0.00 | 32 | 1009.9 |
| 20260503013015 | 20 | 220 | 0.0 | 6.4 | 0.00 | 0.00 | 0.00 | 31 | 1010.0 |
| 20260503011511 | 20 | 136 | 0.0 | 6.4 | 0.00 | 0.00 | 0.00 | 30 | 1010.2 |
| 20260503010010 | 21 | 264 | 0.0 | 4.8 | 0.00 | 0.00 | 0.00 | 29 | 1010.3 |
| 20260503004514 | 21 | 147 | 0.0 | 9.7 | 0.00 | 0.00 | 0.00 | 28 | 1010.4 |
| 20260503003008 | 21 | 141 | 0.0 | 3.2 | 0.00 | 0.00 | 0.00 | 29 | 1010.6 |
| 20260503001506 | 21 | 143 | 0.0 | 1.6 | 0.00 | 0.00 | 0.00 | 27 | 1010.7 |
| 20260503000007 | 21 | 211 | 0.0 | 3.2 | 0.00 | 0.00 | 0.00 | 29 | 1011.0 |
| 20260502234554 | 21 | 139 | 0.0 | 6.4 | 0.00 | 0.00 | 0.00 | 31 | 1011.1 |
| 20260502233050 | 21 | 108 | 0.0 | 1.6 | 0.00 | 0.00 | 0.00 | 30 | 1011.3 |
| 20260502231548 | 21 | 219 | 0.0 | 3.2 | 0.00 | 0.00 | 0.00 | 29 | 1011.5 |
| 20260502230045 | 21 | 88 | 0.0 | 11.3 | 0.00 | 0.00 | 0.00 | 31 | 1011.8 |
| 20260502224545 | 20 | 158 | 0.0 | 6.4 | 0.00 | 0.00 | 0.00 | 32 | 1011.9 |
| 20260502223040 | 21 | 210 | 0.0 | 6.4 | 0.00 | 0.00 | 0.00 | 30 | 1012.3 |
| 20260502221537 | 20 | 326 | 0.0 | 11.3 | 0.00 | 0.00 | 0.00 | 32 | 1012.5 |
| 20260502220037 | 19 | 200 | 0.0 | 1.6 | 0.00 | 0.00 | 0.00 | 33 | 1012.7 |
| 20260502214534 | 18 | 245 | 0.0 | 3.2 | 0.00 | 0.00 | 0.00 | 33 | 1012.9 |
| 20260502213040 | 20 | 176 | 0.0 | 1.6 | 0.00 | 0.00 | 0.00 | 32 | 1013.1 |
| 20260502211531 | 18 | 223 | 0.0 | 6.4 | 0.00 | 0.00 | 0.00 | 34 | 1013.4 |
| 20260502210029 | 18 | 174 | 0.0 | 3.2 | 0.00 | 0.00 | 0.00 | 36 | 1013.7 |
| 20260502204525 | 18 | 240 | 0.0 | 4.8 | 0.00 | 0.00 | 0.00 | 34 | 1014.0 |
| 20260502203022 | 18 | 145 | 0.0 | 4.8 | 0.00 | 0.00 | 0.00 | 33 | 1014.2 |
| 20260502201526 | 18 | 191 | 0.0 | 4.8 | 0.00 | 0.00 | 0.00 | 34 | 1014.4 |
| 20260502200019 | 18 | 215 | 0.0 | 3.2 | 0.00 | 0.00 | 0.00 | 35 | 1014.7 |
| 20260502194514 | 17 | 132 | 0.0 | 6.4 | 0.00 | 0.00 | 0.00 | 36 | 1015.0 |
| 20260502193012 | 17 | 127 | 0.0 | 3.2 | 0.00 | 0.00 | 0.00 | 37 | 1015.1 |
| 20260502191509 | 17 | 131 | 0.0 | 6.4 | 0.00 | 0.00 | 0.00 | 37 | 1015.2 |
| 20260502190009 | 16 | 254 | 0.0 | 3.2 | 0.00 | 0.00 | 0.00 | 37 | 1015.5 |
| 20260502184504 | 17 | 155 | 0.0 | 3.2 | 0.00 | 0.00 | 0.00 | 38 | 1015.6 |
| 20260502183002 | 16 | 229 | 0.0 | 8.0 | 0.00 | 0.00 | 0.00 | 39 | 1016.0 |
| 20260502181615 | 15 | 160 | 0.0 | 4.8 | 0.00 | 0.00 | 0.00 | 43 | 1016.1 |
| 20260502163041 | 12 | 103 | 0.0 | 4.8 | 0.00 | 0.00 | 0.00 | 54 | 1017.2 |
| 20260502161541 | 11 | 114 | 0.0 | 1.6 | 0.00 | 0.00 | 0.00 | 54 | 1017.3 |
| 20260502151537 | 10 | 51 | 0.0 | 4.8 | 0.00 | 0.00 | 0.00 | 56 | 1017.6 |
| 20260502123024 | 8 | 335 | 0.0 | 1.6 | 0.00 | 0.00 | 0.00 | 62 | 1017.2 |
| 20260502121523 | 8 | 342 | 0.0 | 0.0 | 0.00 | 0.00 | 0.00 | 62 | 1017.2 |
| 20260502114520 | 9 | 359 | 0.0 | 0.0 | 0.00 | 0.00 | 0.00 | 61 | 1017.1 |
| 20260502113020 | 9 | 5 | 0.0 | 3.2 | 0.00 | 0.00 | 0.00 | 60 | 1016.9 |
| 20260502111517 | 9 | 328 | 0.0 | 1.6 | 0.00 | 0.00 | 0.00 | 60 | 1017.0 |
| 20260502110017 | 10 | 13 | 0.0 | 4.8 | 0.00 | 0.00 | 0.00 | 59 | 1017.1 |
| 20260502104517 | 10 | 294 | 0.0 | 3.2 | 0.00 | 0.00 | 0.00 | 59 | 1016.9 |
| 20260502103020 | 10 | 345 | 0.0 | 3.2 | 0.00 | 0.00 | 0.00 | 59 | 1017.0 |
| 20260502101514 | 10 | 320 | 0.0 | 1.6 | 0.00 | 0.00 | 0.00 | 60 | 1017.0 |
| 20260502091506 | 10 | 323 | 0.0 | 4.8 | 0.00 | 0.00 | 0.00 | 59 | 1016.7 |
| 20260502070100 | 10 | 284 | 0.0 | 1.6 | 0.00 | 0.00 | 0.00 | 58 | 1016.6 |
| 20260502064602 | 10 | 257 | 0.0 | 1.6 | 0.00 | 0.00 | 0.00 | 58 | 1016.6 |
| 20260502063054 | 10 | 248 | 0.0 | 0.0 | 0.00 | 0.00 | 0.00 | 57 | 1016.5 |
| 20260502061553 | 11 | 288 | 0.0 | 3.2 | 0.00 | 0.00 | 0.00 | 57 | 1016.5 |
| 20260502060050 | 11 | 314 | 0.0 | 3.2 | 0.00 | 0.00 | 0.00 | 57 | 1016.4 |
| 20260502054556 | 11 | 334 | 0.0 | 1.6 | 0.00 | 0.00 | 0.00 | 55 | 1016.4 |
| 20260502053048 | 11 | 306 | 0.0 | 3.2 | 0.00 | 0.00 | 0.00 | 55 | 1016.1 |
| 20260502051545 | 11 | 355 | 0.0 | 9.7 | 0.00 | 0.00 | 0.00 | 54 | 1016.0 |
| 20260502050048 | 11 | 6 | 0.0 | 9.7 | 0.00 | 0.00 | 0.00 | 54 | 1015.8 |
| 20260502044542 | 11 | 14 | 1.6 | 6.4 | 0.00 | 0.00 | 0.00 | 53 | 1015.6 |
| 20260502043045 | 12 | 28 | 1.6 | 9.7 | 0.00 | 0.00 | 0.00 | 52 | 1015.4 |
| 20260502041539 | 12 | 353 | 3.2 | 9.7 | 0.00 | 0.00 | 0.00 | 52 | 1015.3 |
| 20260502040045 | 12 | 13 | 1.6 | 9.7 | 0.00 | 0.00 | 0.00 | 51 | 1015.0 |
| 20260502034535 | 12 | 45 | 1.6 | 11.3 | 0.00 | 0.00 | 0.00 | 51 | 1014.9 |